Probability
5 4 3 4 5 2 0 0 0 0 0 0 0 0 0 0 0 0 0 0 0 0 0 1 3 4 4 3 1 1 2 2 2 2 4 6 6 5 4 2 1 0 1 1 1 1 0 0 1
3 2 3 5 5 2 0 0 0 0 0 0 0 0 0 0 0 0 0 0 0 0 0 1 4 5 4 2 0 0 1 1 1 1 3 7 7 4 3 2 1 1 1 1 1 1 1 0 1
1 1 3 4 4 2 0 0 0 0 0 0 0 0 0 0 0 0 0 0 0 0 0 2 5 6 4 2 1 1 1 1 1 1 3 6 6 3 1 1 2 1 1 2 2 2 1 0 1
1 2 3 3 2 1 0 0 0 0 0 0 0 0 0 0 0 0 0 0 0 0 0 2 5 6 5 4 4 3 2 2 1 1 2 3 4 2 0 1 2 3 2 3 3 1 0 0 0
1 1 2 2 1 0 0 0 0 0 0 0 0 0 0 0 0 0 0 0 0 0 0 1 4 6 6 5 5 5 4 3 1 1 1 3 4 3 2 2 3 3 3 4 4 2 0 0 0
1 1 0 0 0 0 0 0 0 0 0 0 0 0 0 0 0 0 0 0 0 0 0 1 3 7 8 6 5 4 4 3 2 2 2 3 4 4 2 2 2 3 4 4 4 3 1 0 0
2 1 0 0 0 0 0 0 0 0 0 0 0 0 0 0 0 1 1 1 0 0 0 0 2 5 7 6 4 3 3 2 1 2 1 2 3 3 2 3 4 4 5 5 5 4 2 0 0
2 1 0 0 0 0 0 0 0 0 0 0 0 0 0 0 0 1 2 2 1 0 1 1 1 2 3 4 4 3 3 3 2 1 1 1 2 1 2 4 6 7 7 7 7 6 4 1 1
1 0 0 0 0 0 0 0 0 0 0 0 0 1 2 2 1 2 3 3 2 2 3 3 2 2 2 2 2 2 3 4 3 1 1 1 2 2 2 3 6 8 9 9 8 8 7 4 2
0 0 0 0 0 0 0 0 0 0 0 0 1 2 4 3 2 3 3 3 3 4 4 4 2 2 2 1 1 1 2 2 2 1 0 1 3 4 2 1 3 6 7 7 7 7 7 5 3
0 0 0 0 0 0 0 0 0 0 0 0 1 3 4 4 3 3 3 3 3 3 3 2 1 1 1 1 0 0 0 1 1 1 0 1 2 2 1 0 1 2 3 3 4 5 5 4 2
0 0 0 0 0 0 0 0 0 0 1 1 1 3 4 3 3 3 3 2 2 2 2 1 0 0 0 0 0 0 0 0 0 0 0 0 1 1 0 0 0 0 0 1 3 3 4 3 3
0 0 0 0 0 0 0 0 0 2 4 4 3 3 3 3 3 2 1 1 1 2 2 1 1 0 0 0 0 0 0 0 0 0 0 0 0 0 0 0 0 0 0 1 2 2 3 3 3
0 0 0 0 0 0 0 0 2 4 7 6 4 3 3 2 1 1 0 0 1 2 3 3 2 1 0 0 0 0 0 0 0 0 0 0 0 0 0 0 0 0 0 1 1 1 1 2 2
0 0 0 0 0 0 0 1 4 6 8 8 6 4 3 1 1 0 1 1 2 3 4 4 3 1 0 0 0 0 0 0 0 0 0 0 0 0 0 0 0 0 0 0 0 0 0 1 1
0 0 0 0 0 0 0 2 5 7 8 9 7 4 2 1 1 2 2 2 3 5 5 4 3 1 0 0 0 0 0 0 1 1 1 0 0 0 0 0 0 0 0 0 0 0 0 0 0
0 0 0 0 0 0 0 2 5 6 7 8 7 4 2 1 2 4 5 4 5 5 5 3 2 1 0 0 0 0 0 1 2 2 1 0 0 1 1 1 1 0 0 0 0 0 0 0 0
0 0 0 0 0 0 0 1 4 5 5 6 6 4 2 2 3 5 7 6 5 4 3 3 2 2 1 1 0 0 1 2 2 1 1 1 1 2 2 2 1 0 0 0 0 0 0 0 0
0 0 0 0 0 0 0 1 2 4 4 5 5 5 3 3 4 6 8 8 5 4 4 3 3 3 3 3 2 1 1 3 2 1 2 2 2 2 2 1 1 0 0 0 0 0 0 0 0
0 0 0 0 0 0 0 0 2 4 4 5 5 5 4 4 5 7 9 9 7 5 5 4 3 3 4 5 4 3 2 2 2 1 2 3 3 1 1 0 0 0 0 0 0 0 0 1 1
0 0 0 0 0 0 0 1 2 4 4 5 5 4 3 5 7 8 10 11 10 7 6 5 4 4 5 6 6 4 2 1 1 0 1 2 2 1 0 0 0 0 0 0 0 0 0 1 1
0 0 0 0 0 0 1 2 2 2 3 5 4 3 3 6 8 9 10 12 11 8 6 6 6 6 6 7 6 4 2 0 0 0 1 1 1 0 0 0 0 0 0 0 0 0 0 0 1
0 0 0 0 0 0 1 2 1 0 1 3 3 2 3 7 11 11 11 11 11 10 9 8 7 7 8 8 6 4 2 1 1 0 0 0 0 0 0 0 0 0 0 0 0 0 1 1 0
0 0 0 0 0 0 1 1 0 0 0 1 2 2 5 10 14 13 12 11 11 11 12 12 10 9 9 9 6 4 3 3 2 1 1 0 1 2 1 1 0 0 0 0 0 0 2 2 2
0 0 0 0 0 0 0 0 0 0 0 1 2 3 7 12 13 12 12 11 11 12 15 16 13 11 10 9 7 5 4 4 3 3 2 2 2 3 3 3 2 2 1 1 0 0 2 3 4
0 0 0 0 0 0 0 0 0 0 0 0 1 3 7 10 10 9 11 12 12 12 16 18 16 13 11 9 8 6 5 4 3 3 3 3 4 5 6 6 5 5 4 3 1 1 2 4 5
0 0 0 0 0 0 0 0 0 0 0 0 0 2 5 7 6 6 9 13 13 13 16 19 17 14 12 11 8 7 5 4 4 4 4 5 6 7 8 8 7 6 6 5 4 3 4 5 6
0 0 0 0 0 0 0 0 0 0 0 0 0 2 3 5 4 4 5 9 11 12 15 20 19 16 14 12 10 7 6 5 6 6 6 7 7 8 9 9 8 6 6 6 6 5 6 6 6
0 0 0 0 0 0 0 0 0 0 0 0 1 2 4 5 6 5 4 6 9 12 17 21 20 16 14 14 12 10 10 9 9 8 7 8 9 9 10 10 8 6 6 6 7 7 7 7 7
0 0 0 0 0 0 0 0 0 0 0 1 2 3 5 8 9 7 4 5 8 13 19 22 20 15 14 14 14 13 13 13 11 9 8 8 9 10 12 11 8 6 6 6 7 8 8 8 9
Wind_Speed
8 5 2 1 1 3 3 3 6 7 6 7 9 9 9 6 5 5 3 8 8 7 5 7 9 10 10 10 10 10 10 10 11 11 11 11 11 11 11 12 12 12 12 12 12 11 10 10 10
4 4 2 0 3 3 2 4 9 8 8 8 9 10 8 7 6 8 5 8 9 8 5 6 10 10 10 10 9 9 9 10 10 11 11 11 11 11 11 11 11 11 11 11 11 10 10 9 9
3 3 1 1 2 3 3 5 9 9 8 7 6 6 5 5 6 6 7 10 8 7 5 7 10 10 9 9 9 9 9 9 10 11 11 11 11 10 10 10 10 10 10 10 10 9 9 8 8
1 0 1 3 3 2 5 6 9 10 7 7 7 6 4 4 5 8 10 10 9 6 5 7 11 10 9 9 8 8 9 9 9 10 10 10 10 10 10 10 10 9 9 9 9 9 8 8 7
1 2 3 3 2 3 5 7 9 8 5 7 9 7 4 3 9 12 11 10 9 6 5 6 10 10 9 9 9 9 9 8 8 9 9 9 9 9 9 9 9 9 8 8 8 8 7 7 6
1 2 3 2 2 4 4 7 10 11 9 8 8 6 3 5 10 10 10 9 8 8 5 5 9 9 9 8 9 9 9 8 7 8 8 8 8 8 8 9 9 8 8 8 7 7 7 6 6
2 2 1 2 2 4 4 5 8 9 8 5 7 6 3 5 7 9 8 8 7 7 5 4 4 5 7 8 8 9 8 8 7 7 7 7 7 7 8 8 8 8 7 7 7 7 6 6 6
3 2 1 2 3 3 4 5 6 9 8 7 6 7 6 6 8 9 8 7 7 6 5 3 3 3 2 4 7 7 7 7 7 6 6 6 6 6 7 6 7 7 7 7 7 6 6 6 5
3 3 1 3 4 3 5 7 5 6 9 5 5 6 9 11 11 10 7 6 5 5 3 3 3 3 3 3 5 5 5 5 5 4 4 3 2 2 4 5 6 7 7 7 6 6 5 5 4
4 3 5 5 5 6 6 6 6 6 8 7 8 9 11 11 11 10 9 7 5 5 4 3 3 3 3 3 2 1 2 2 2 1 1 1 1 2 3 5 6 6 6 6 5 5 4 3 1
3 4 2 3 5 6 6 4 4 9 6 8 12 13 11 11 10 9 7 7 6 6 5 4 3 3 2 2 2 1 1 1 1 2 2 1 1 1 1 1 2 2 3 2 2 2 1 1 1
2 2 3 3 4 6 6 5 6 7 8 11 13 14 11 11 9 9 8 7 6 5 5 4 4 3 3 2 2 1 1 1 1 1 2 2 1 1 1 1 1 1 1 1 1 1 1 1 2
1 2 3 4 5 6 7 7 7 7 11 13 13 12 11 10 9 8 8 7 6 5 5 4 4 3 3 3 2 2 1 2 2 1 2 3 2 2 1 1 1 1 1 2 2 1 1 1 2
1 3 3 4 4 5 8 5 6 8 12 13 12 10 10 10 9 8 7 7 6 6 5 4 4 3 3 2 2 1 1 2 2 1 2 3 2 2 2 1 1 1 1 2 2 2 2 1 1
3 4 4 2 2 4 7 5 6 9 12 12 11 10 11 10 9 9 9 8 7 6 5 5 5 4 4 3 2 2 1 2 2 2 2 3 3 3 2 2 1 1 2 2 2 2 2 2 2
3 3 2 3 1 1 6 4 6 9 12 11 10 11 10 9 9 9 9 8 7 6 6 5 5 4 3 3 2 2 1 2 1 2 2 2 3 3 3 2 1 1 2 2 2 2 2 2 1
3 0 2 4 2 2 4 4 6 9 11 10 9 10 10 9 8 9 10 9 8 7 6 5 4 4 4 3 2 2 2 2 2 2 2 2 2 2 2 1 1 1 2 2 3 2 2 2 2
4 3 2 3 3 4 3 3 6 8 9 9 9 8 9 10 10 10 10 9 8 7 6 5 4 4 3 2 2 1 1 1 1 1 2 2 2 2 2 1 1 1 2 2 2 2 2 2 2
4 2 2 3 2 3 3 2 5 7 7 7 7 7 9 10 8 9 10 9 8 7 6 5 5 4 3 2 2 2 1 1 1 1 2 2 2 2 2 1 1 1 2 2 3 3 3 2 2
3 2 2 2 2 3 2 2 4 7 10 10 10 10 10 8 8 8 9 9 9 8 7 6 5 5 4 3 3 2 2 1 1 1 1 2 2 2 3 2 2 2 2 2 2 3 2 1 2
4 5 5 4 1 2 3 2 2 4 5 6 8 9 10 12 12 11 10 9 9 9 8 7 6 5 5 4 2 2 2 1 1 1 0 1 2 2 2 3 2 2 2 2 2 3 3 2 1
5 7 6 5 3 2 1 1 5 4 4 6 8 8 10 11 11 11 10 10 10 10 8 7 6 6 5 5 4 4 3 2 2 2 1 1 1 2 2 2 3 2 2 2 2 2 2 3 2
6 6 5 4 2 1 1 2 6 3 5 9 9 10 11 11 12 13 13 12 11 10 9 7 7 6 5 5 5 5 3 3 1 1 1 1 1 1 2 2 2 2 2 2 2 1 2 2 2
4 4 4 4 4 1 5 3 6 6 10 9 9 9 10 11 11 12 12 11 9 9 9 8 7 6 6 5 5 5 5 4 3 2 2 1 1 1 1 2 2 2 2 2 2 2 2 2 2
3 6 4 5 4 5 4 3 8 8 8 9 9 9 9 10 10 10 11 11 11 11 10 9 8 7 6 6 6 6 6 5 5 3 3 2 1 1 2 2 2 2 2 2 2 2 2 2 2
4 9 8 5 5 4 3 4 7 4 5 5 7 8 9 9 9 10 11 11 11 11 10 10 9 8 8 7 6 6 5 4 3 3 3 3 2 3 2 2 2 2 2 2 2 1 2 2 2
4 3 8 7 2 0 3 4 6 2 3 4 5 7 8 8 7 8 9 10 10 10 10 11 10 9 8 8 7 6 5 5 4 4 3 2 2 2 2 2 2 2 2 2 2 1 1 1 2
7 6 5 5 4 2 4 3 4 4 3 3 4 6 7 8 7 6 7 9 9 9 9 9 9 9 8 8 7 7 6 5 5 3 3 3 3 2 2 2 2 1 1 1 1 1 1 2 2
1 2 4 4 6 6 3 7 8 9 8 6 6 7 8 8 8 6 6 7 8 8 9 8 8 6 7 8 7 6 6 5 4 4 4 3 3 3 3 2 2 2 1 1 1 1 1 2 2
5 5 6 4 3 5 4 8 5 8 7 7 6 5 6 6 6 6 6 6 7 8 8 8 7 6 7 7 7 6 5 5 4 4 4 4 3 3 3 3 2 2 2 1 1 1 1 2 2
Wind_Direction
180 172 166 204 40 48 69 83 99 85 64 63 73 82 83 70 98 132 163 148 144 144 146 137 131 129 126 123 122 119 119 122 124 124 124 126 128 130 132 133 134 136 138 140 141 141 139 138 135
168 168 179 16 71 69 56 90 94 97 117 111 85 84 79 72 88 116 134 150 145 142 140 139 136 133 129 127 124 122 121 123 127 127 126 126 126 127 131 136 136 135 137 141 143 144 143 141 140
174 192 184 54 76 122 110 103 111 110 110 100 84 65 73 97 110 132 152 148 136 136 143 147 140 136 134 132 128 124 122 123 126 129 130 129 130 130 131 136 138 136 139 143 145 146 146 146 147
145 131 34 62 77 127 128 125 117 107 85 79 93 72 67 99 123 138 142 140 131 138 151 150 144 139 135 133 133 130 127 125 127 133 134 133 134 135 136 137 139 141 144 147 148 150 152 155 157
95 57 42 46 73 102 113 117 116 106 89 89 94 95 73 80 117 131 137 135 136 143 150 150 147 143 138 137 136 135 131 128 130 136 137 136 137 138 139 143 144 145 148 149 153 156 160 165 169
54 60 59 60 75 93 99 108 105 101 106 107 100 100 86 122 124 134 134 134 138 141 142 145 143 140 141 139 136 137 135 131 132 136 142 144 145 145 147 152 154 155 157 157 161 165 169 174 180
128 98 128 137 114 97 105 109 109 118 119 120 120 101 112 134 134 134 133 131 132 136 135 134 140 139 141 142 137 137 137 136 136 135 140 145 150 153 158 161 165 166 165 167 170 174 179 188 194
166 103 62 122 125 121 121 97 110 120 115 123 116 125 153 159 133 124 124 121 123 126 132 132 129 128 139 138 137 139 142 142 142 144 147 151 156 161 165 166 169 171 174 176 178 180 186 195 199
142 84 150 174 149 147 126 103 87 89 108 105 91 118 141 137 128 119 114 113 120 124 128 134 136 133 135 143 148 149 147 146 146 146 152 157 157 158 165 175 177 180 185 186 189 190 195 201 204
126 145 201 188 160 146 130 124 126 101 99 95 96 107 123 128 129 129 134 137 137 141 148 150 143 139 151 155 142 141 127 122 121 125 140 129 130 153 164 174 182 188 193 196 196 197 201 206 189
158 172 174 150 159 143 137 133 114 118 120 140 139 140 138 132 134 136 137 141 147 151 146 147 149 148 146 137 130 132 114 118 128 145 152 128 117 126 134 146 174 187 192 189 184 194 194 173 165
167 186 152 135 138 131 139 131 112 125 148 147 142 144 139 137 142 145 145 146 142 141 144 152 150 138 135 135 138 146 137 140 152 164 155 136 123 123 142 156 172 175 176 166 159 170 165 151 165
129 120 106 116 116 112 112 118 117 117 129 135 136 136 140 145 148 149 150 149 145 146 152 156 139 133 134 128 151 152 165 161 161 161 160 150 144 149 151 164 164 178 164 168 166 161 149 150 167
165 103 90 105 110 115 116 115 109 132 136 137 141 144 149 152 152 149 152 151 153 156 157 152 138 141 134 136 156 159 174 166 152 148 156 152 154 154 152 167 175 179 176 180 177 170 163 160 151
85 70 24 30 104 123 111 92 134 148 142 146 151 154 155 160 157 159 164 159 157 157 153 149 148 141 138 146 158 140 154 140 144 154 156 149 147 151 147 154 172 187 175 171 162 150 136 129 124
45 49 359 296 113 142 109 158 168 155 146 155 163 164 164 166 166 165 162 157 155 151 149 155 152 142 140 140 135 126 125 125 141 146 142 147 151 151 143 150 176 184 164 159 153 144 134 131 132
20 158 246 283 232 143 110 175 184 165 156 163 169 171 168 168 171 169 163 160 158 155 153 151 145 147 149 140 131 129 124 120 127 129 133 147 144 145 144 163 189 170 149 148 153 140 143 142 142
229 216 232 245 256 136 140 196 184 174 166 173 175 171 172 175 178 171 163 161 157 155 152 151 147 152 151 132 105 90 88 104 114 132 148 151 148 149 143 155 165 135 133 135 136 140 140 145 151
203 200 223 240 201 119 170 204 193 178 179 184 182 179 181 183 174 165 163 160 154 153 153 157 153 161 149 138 134 137 150 165 141 163 166 160 157 156 147 136 138 135 139 149 142 133 130 130 123
182 167 237 247 201 116 143 217 208 188 190 190 189 188 186 179 164 166 163 162 163 165 166 163 164 165 164 165 164 166 162 172 169 171 164 177 170 163 157 148 153 149 135 127 136 133 130 150 138
209 193 205 187 99 59 107 346 239 231 201 202 196 191 185 180 175 174 171 170 169 170 172 171 173 168 170 161 137 117 80 53 51 62 168 212 180 173 163 158 155 148 145 159 171 163 153 164 185
229 215 176 161 124 252 157 247 273 231 222 214 207 195 192 187 178 175 175 174 176 179 174 170 170 169 171 159 146 148 151 165 198 193 194 201 180 175 166 157 158 160 157 161 176 166 161 155 173
213 193 163 156 133 69 301 146 273 228 220 221 211 199 194 190 181 178 180 179 180 178 173 171 168 169 172 166 165 159 160 178 178 166 168 192 212 185 172 169 158 164 165 173 173 152 156 163 170
144 86 44 44 71 330 242 175 257 222 214 209 203 195 190 187 184 180 180 175 176 177 174 172 171 178 178 173 174 171 166 166 160 172 184 209 217 212 198 180 167 174 173 179 184 178 168 177 173
101 92 40 357 4 257 252 189 242 228 207 197 192 188 183 180 176 179 179 177 179 179 177 177 177 184 184 181 184 180 176 174 179 186 187 179 180 204 222 203 187 184 187 186 174 165 180 185 179
198 142 158 192 217 267 313 242 261 234 185 179 171 169 168 176 176 180 183 180 181 181 179 178 182 186 185 186 189 187 180 182 189 188 183 186 191 204 205 198 191 192 188 188 171 168 199 191 195
170 189 171 144 174 179 275 287 317 50 127 141 147 147 153 169 182 182 180 180 180 181 182 183 184 187 189 189 187 185 186 184 186 186 184 192 198 200 198 184 181 184 188 187 173 187 208 193 202
161 164 102 118 149 232 285 260 232 221 193 159 157 160 159 167 174 179 188 185 181 180 181 178 182 192 191 189 191 188 190 191 191 181 187 195 201 198 177 171 177 179 183 178 163 190 203 194 221
92 104 117 127 150 154 222 262 218 198 191 183 189 177 171 174 171 171 187 190 182 176 173 177 184 186 188 191 193 190 190 189 186 186 197 196 190 184 180 174 166 169 177 166 164 229 218 205 231
164 173 144 148 218 164 176 258 243 189 186 171 174 173 168 168 161 161 174 179 175 176 175 177 180 184 191 189 184 188 189 186 186 194 199 190 185 186 182 177 173 184 183 178 186 227 234 209 219